Lexington Weather

Lexington, Massachusetts, USA

67°F
9/23/2021 4:46am 
  • Lexington Conditions: Overcast
  • Temperature: 67.1°F / 19.5°CWarmer 0.7°F than last hour.
  • Dew Point: 66.2°FIncreased 1.1°Fsince last hour.
  • Relative Humidity: 97%Increased 1.0% since last hour.
  • Wind: Calm, 10-min avg: Calm, gust: 3 mph
  • Barometer: 30.03 in Steady
  • Visibility: 10 miles
  • Rain Today: 0.00 in
  •   

Regional Weather Roundup
for Boston / Norton, MA

        
000
ASUS41 KBOX 182104
RWRBOX

REGIONAL WEATHER ROUNDUP
NATIONAL WEATHER SERVICE BOSTON/NORTON MA
500 PM EDT SAT SEP 18 2021

NOTE:  "FAIR" INDICATES FEW OR NO CLOUDS BELOW 12,000 FEET WITH NO 
SIGNIFICANT WEATHER AND/OR OBSTRUCTIONS TO VISIBILITY.

MAZALL-182200-
EASTERN MASSACHUSETTS
  
CITY           SKY/WX    TMP DP  RH WIND       PRES   REMARKS
BOSTON         MOSUNNY   72  65  78 SE7       29.96F                  
BEVERLY        SUNNY     73  67  81 S7        29.95F                  
LAWRENCE       SUNNY     79  65  62 CALM      29.97S                  
BEDFORD        MOSUNNY   79  66  64 CALM      29.94F                  
BLUE HILL      NOT AVBL                                               
NORWOOD        SUNNY     77  66  68 CALM      29.95F                  
MARSHFIELD     SUNNY     72  66  83 CALM      29.95F                  
PLYMOUTH       MOSUNNY   73  66  78 N7        29.96F                  
TAUNTON        MOSUNNY   75  66  73 NW3       29.96F                  
NEW BEDFORD    MOSUNNY   75  66  73 N7        29.95F                  
$$

MAZALL-182200-
CAPE COD AND THE ISLANDS
  
CITY           SKY/WX    TMP DP  RH WIND       PRES   REMARKS
FALMOUTH       CLOUDY    70  66  88 N9G18     29.97S                  
HYANNIS        CLOUDY    67  66  97 N10       29.94F FOG              
CHATHAM        CLOUDY    69  66  90 VRB7      29.96S                  
PROVINCETOWN   FOG       66  65  96 N7        29.97F VSB 3/4          
NANTUCKET      MOSUNNY   72  66  81 N18       29.94S                  
MARTHAS VNYRD  MOSUNNY   74  67  78 NE8       29.95S                  
$$
 
MAZALL-182200-
CENTRAL AND WESTERN MASSACHUSETTS
  
CITY           SKY/WX    TMP DP  RH WIND       PRES   REMARKS
WORCESTER      SUNNY     78  64  61 W6        29.99F                  
FITCHBURG      SUNNY     81  63  54 CALM      29.96F                  
ORANGE         SUNNY     83  64  52 VRB3      29.98F                  
SPRINGFIELD    MOSUNNY   82  64  55 N6        29.95F                  
WESTFIELD      SUNNY     81  69  67 VRB3      29.96F                  
NORTH ADAMS    MOSUNNY   80  65  59 N8        30.00S                  
PITTSFIELD     MOSUNNY   77  62  59 NW7       30.01S                  
$$
 
RIZALL-182200-
RHODE ISLAND
  
CITY           SKY/WX    TMP DP  RH WIND       PRES   REMARKS
PROVIDENCE     MOSUNNY   77  67  71 E7        29.96F                  
NEWPORT        SUNNY     74  66  76 N8        29.96F                  
BLOCK ISLAND   SUNNY     72  66  81 NE7       29.98R                  
SMITHFIELD     SUNNY     79  66  64 CALM      29.97F                  
WESTERLY       MOSUNNY   73  68  84 S6        29.96S                  
$$
 
CTZALL-182200-
CONNECTICUT
  
CITY           SKY/WX    TMP DP  RH WIND       PRES   REMARKS
BRADLEY INTL   MOSUNNY   80  68  66 CALM      29.96F                  
HARTFORD       PTSUNNY   77  69  76 S3        29.96S                  
BRIDGEPORT     MOSUNNY   79  67  66 SW9       29.96F                  
DANBURY        SUNNY     83  64  52 W6        29.99F                  
GROTON         MOSUNNY   76  67  73 SW10      29.95F                  
NEW HAVEN      MOSUNNY   80  69  69 SW6       29.97S                  
CHESTER        FAIR      82  66  57 VRB5      29.98S                  
MERIDEN        PTSUNNY   79  66  64 NE6       29.97S                  
WILLIMANTIC    SUNNY     79  66  64 NW5       29.97S                  
OXFORD         MOSUNNY   78  67  68 NW7       30.00F                  
$$

MEZ002-015-021-024-NHZ003-005-008-011-012-014-VTZ005-008-182200-
NORTHERN NEW ENGLAND
  
CITY           SKY/WX    TMP DP  RH WIND       PRES   REMARKS
PORTLAND ME    PTSUNNY   66  65  96 SW9       29.96R FOG              
BANGOR ME      PTSUNNY   73  65  75 N10       29.96R                  
CONCORD NH     SUNNY     80  65  59 CALM      29.95F                  
MANCHESTER NH  MOSUNNY   82  64  54 NW6       29.94S                  
NASHUA NH      MOSUNNY   80  70  71 CALM      29.96S                  
PORTSMOUTH NH  MOSUNNY   72  65  78 SE7       29.96S                  
JAFFREY NH     SUNNY     79  69  71 CALM      30.00S                  
KEENE NH       SUNNY     80  66  62 VRB3      29.97F                  
BURLINGTON VT  PTSUNNY   70  51  51 N12       30.06S                  
MT. WASHINGTON FOG       50  50 100 NW33        N/A  VSB 1/16         
$$

NYZ052-076-182200-
EASTERN NEW YORK
  
CITY           SKY/WX    TMP DP  RH WIND       PRES   REMARKS
ALBANY         PTSUNNY   77  64  64 W9        29.99S THUNDER          
NEW YORK CITY  PTSUNNY   85  63  47 N5        29.96F                  
$$
 
ANZALL-182200-
MARINE OBSERVATIONS
  
STATION/POSITION TIME  TEMP    WIND        PRES    VSBY  WAVE
                       AIR SEA DIR/SP/G                  HT/PER
                 (UTC) (F)     (DEG/KT/KT) (MB)    (MI)  (FT/S)
BOSTON BUOY      2040      67   CALM  /  2 1015.1F
BUZZARDS BAY     2000           10/ 10/ 10 1015.5F
NANTUCKET SOUND  2050   68 72  360/ 16/ 19 1014.2S         2/ 3
MASS BAY-STELLWA 2004   65      60/  6/  6 1014.5F  1 7/8  3/11
ISLE OF SHOALS   2000   64     140/ 10/ 11 1014.1F
S OF BLOCK IS    2026      71                N/A           6/ 9
$$

......................KEY.........................
  SKY/WX - SKY CONDITION/PRESENT WEATHER
  TMP    - TEMPERATURE IN FAHRENHEIT
  DWPT   - DEWPOINT IN FAHRENHEIT
  RH     - RELATIVE HUMIDITY IN PERCENT
  WIND   - DIRECTION AND SPEED IN MPH
  PRES   - MEAN SEA LEVEL PRESSURE IN INCHES OF HG
  WCI    - WIND CHILL INDEX
  VSB    - VISIBILITY IN MILES
  HX     - HEAT INDEX
  TC     - TEMPERATURE IN CELSIUS
  VRB    - VARIABLE WIND DIRECTION
  N/A    - NOT AVAILABLE
  
      

Other recent Regional Weather Roundups

Thu Sep 23, 4:04am

Thu Sep 23, 3:04am

Thu Sep 23, 2:04am

Thu Sep 23, 1:04am

Thu Sep 23, 12:04am

Wed Sep 22, 11:04pm

Wed Sep 22, 10:04pm

Wed Sep 22, 9:04pm

Wed Sep 22, 8:04pm

Wed Sep 22, 7:04pm

Wed Sep 22, 6:04pm

Wed Sep 22, 5:04pm

Wed Sep 22, 4:04pm

Wed Sep 22, 3:04pm

Wed Sep 22, 2:04pm

Wed Sep 22, 1:04pm

Wed Sep 22, 12:05pm

Wed Sep 22, 11:04am

Wed Sep 22, 10:04am

Wed Sep 22, 9:04am

Wed Sep 22, 8:04am

Wed Sep 22, 7:04am

Wed Sep 22, 6:04am

Wed Sep 22, 5:04am

Wed Sep 22, 4:04am

Wed Sep 22, 3:04am

Wed Sep 22, 2:04am

Wed Sep 22, 1:04am

Wed Sep 22, 12:04am

Tue Sep 21, 11:04pm

Tue Sep 21, 10:04pm

Tue Sep 21, 9:04pm

Tue Sep 21, 8:04pm

Tue Sep 21, 7:04pm

Tue Sep 21, 6:04pm

Tue Sep 21, 5:04pm

Tue Sep 21, 4:04pm

Tue Sep 21, 3:04pm

Tue Sep 21, 2:04pm

Tue Sep 21, 1:04pm

Tue Sep 21, 12:04pm

Tue Sep 21, 11:04am

Tue Sep 21, 10:04am

Tue Sep 21, 9:04am

Tue Sep 21, 8:04am

Tue Sep 21, 7:04am

Tue Sep 21, 6:04am

Tue Sep 21, 5:04am

Tue Sep 21, 4:04am

Tue Sep 21, 3:04am

Tue Sep 21, 2:04am

Tue Sep 21, 1:04am

Tue Sep 21, 12:04am

Mon Sep 20, 11:04pm

Mon Sep 20, 10:04pm

Mon Sep 20, 9:04pm

Mon Sep 20, 8:04pm

Mon Sep 20, 7:04pm

Mon Sep 20, 6:04pm

Mon Sep 20, 5:04pm

Mon Sep 20, 4:04pm

Mon Sep 20, 3:04pm

Mon Sep 20, 2:04pm

Mon Sep 20, 1:04pm

Mon Sep 20, 12:04pm

Mon Sep 20, 11:04am

Mon Sep 20, 10:04am

Mon Sep 20, 9:04am

Mon Sep 20, 7:04am

Mon Sep 20, 6:04am

Mon Sep 20, 5:04am

Mon Sep 20, 4:04am

Mon Sep 20, 3:04am

Mon Sep 20, 2:04am

Mon Sep 20, 1:04am

Mon Sep 20, 12:04am

Sun Sep 19, 11:04pm

Sun Sep 19, 10:04pm

Sun Sep 19, 9:04pm

Sun Sep 19, 8:04pm

Sun Sep 19, 7:04pm

Sun Sep 19, 6:04pm

Sun Sep 19, 5:04pm

Sun Sep 19, 4:04pm

Sun Sep 19, 3:04pm

Sun Sep 19, 2:05pm

Sun Sep 19, 1:04pm

Sun Sep 19, 12:04pm

Sun Sep 19, 11:04am

Sun Sep 19, 10:05am

Sun Sep 19, 9:04am

Sun Sep 19, 8:04am

Sun Sep 19, 7:04am

Sun Sep 19, 6:04am

Sun Sep 19, 5:04am

Sun Sep 19, 4:04am

Sun Sep 19, 3:04am

Sun Sep 19, 2:04am

Sun Sep 19, 1:04am

Sun Sep 19, 12:04am

Sat Sep 18, 11:05pm

Sat Sep 18, 10:04pm

Sat Sep 18, 9:04pm

Sat Sep 18, 8:04pm

Sat Sep 18, 7:04pm

Sat Sep 18, 6:04pm

Sat Sep 18, 4:04pm

Sat Sep 18, 3:04pm

Sat Sep 18, 2:04pm

Sat Sep 18, 1:04pm

Sat Sep 18, 12:04pm

Sat Sep 18, 11:04am

Sat Sep 18, 10:04am

Sat Sep 18, 9:04am

Sat Sep 18, 8:04am

Sat Sep 18, 7:04am

Sat Sep 18, 6:04am

Sat Sep 18, 5:04am

Sat Sep 18, 4:04am

Sat Sep 18, 3:04am

Sat Sep 18, 2:04am

Sat Sep 18, 1:04am

Sat Sep 18, 12:04am

Fri Sep 17, 11:04pm

Fri Sep 17, 10:04pm

Fri Sep 17, 9:04pm

Fri Sep 17, 8:04pm

Fri Sep 17, 7:04pm

Fri Sep 17, 6:04pm

Fri Sep 17, 5:04pm

Fri Sep 17, 4:04pm

Fri Sep 17, 3:04pm

Fri Sep 17, 2:04pm

Fri Sep 17, 1:04pm

Fri Sep 17, 12:05pm

Fri Sep 17, 11:04am

Fri Sep 17, 10:04am

Fri Sep 17, 9:04am

Fri Sep 17, 8:04am

Fri Sep 17, 7:04am

Fri Sep 17, 6:04am

Fri Sep 17, 5:04am

Fri Sep 17, 4:04am

Fri Sep 17, 3:04am

Fri Sep 17, 2:04am

Fri Sep 17, 1:04am

Fri Sep 17, 12:04am

Thu Sep 16, 11:04pm

Thu Sep 16, 10:04pm

Thu Sep 16, 9:04pm

Thu Sep 16, 8:04pm

Thu Sep 16, 7:04pm

Thu Sep 16, 6:04pm

Thu Sep 16, 5:04pm

Thu Sep 16, 4:04pm

Thu Sep 16, 3:04pm

Thu Sep 16, 2:04pm

Thu Sep 16, 1:05pm

Thu Sep 16, 12:04pm

Thu Sep 16, 11:05am

Thu Sep 16, 10:05am

Thu Sep 16, 9:04am

Thu Sep 16, 8:04am

Thu Sep 16, 7:04am

Thu Sep 16, 6:04am

Thu Sep 16, 5:04am

Meta data:

ID: b86929de-a647-4e15-ab06-73c5006f2ad4
Link: https://api.weather.gov/products/b86929de-a647-4e15-ab06-73c5006f2ad4